| time (UTC) | temp F | wind direction | speed MPH | gust MPH | rain 1hr in | rain 24hr in | rain mn in | humidity % | barometer mb |
| 20260903084315 | 75 | 0.0 | 0.0 | 0.00 | 0.00 | 0.00 | 55 | 1019.4 | |
| 20260903083335 | 76 | 0.0 | 0.0 | 0.00 | 0.00 | 0.00 | 55 | 1019.3 | |
| 20260903082315 | 76 | 0.0 | 0.0 | 0.00 | 0.00 | 0.00 | 54 | 1019.5 | |
| 20260903081336 | 76 | 293 | 1.0 | 2.0 | 0.00 | 0.00 | 0.00 | 54 | 1019.4 |
| 20260903080316 | 76 | 0.0 | 0.0 | 0.00 | 0.00 | 0.00 | 53 | 1019.6 | |
| 20260903075316 | 77 | 0.0 | 0.0 | 0.00 | 0.00 | 0.00 | 53 | 1019.7 | |
| 20260903074315 | 78 | 225 | 5.0 | 8.0 | 0.00 | 0.00 | 0.00 | 52 | 1019.7 |
| 20260903073315 | 78 | 225 | 1.0 | 6.0 | 0.00 | 0.00 | 0.00 | 50 | 1019.6 |
| 20260903072316 | 79 | 0.0 | 2.0 | 0.00 | 0.00 | 0.00 | 47 | 1019.4 | |
| 20260903071315 | 80 | 293 | 4.0 | 10.0 | 0.00 | 0.00 | 0.00 | 42 | 1019.5 |
| 20260903070316 | 81 | 0.0 | 0.0 | 0.00 | 0.00 | 0.00 | 37 | 1019.2 | |
| 20260903065315 | 80 | 0.0 | 0.0 | 0.00 | 0.00 | 0.00 | 39 | 1018.8 | |
| 20260903064336 | 81 | 0.0 | 0.0 | 0.00 | 0.00 | 0.00 | 37 | 1018.8 | |
| 20260903063316 | 82 | 0.0 | 0.0 | 0.00 | 0.00 | 0.00 | 36 | 1018.6 | |
| 20260903062316 | 83 | 0.0 | 0.0 | 0.00 | 0.00 | 0.00 | 35 | 1018.3 | |
| 20260903061315 | 83 | 0.0 | 0.0 | 0.00 | 0.00 | 0.00 | 35 | 1018.5 | |
| 20260903060335 | 83 | 0.0 | 0.0 | 0.00 | 0.00 | 0.00 | 35 | 1018.6 | |
| 20260903055356 | 83 | 0.0 | 0.0 | 0.00 | 0.00 | 0.00 | 35 | 1018.8 | |
| 20260903054316 | 84 | 0.0 | 0.0 | 0.00 | 0.00 | 0.00 | 36 | 1018.9 | |
| 20260903053316 | 83 | 0.0 | 0.0 | 0.00 | 0.00 | 0.00 | 36 | 1018.9 | |
| 20260903052315 | 83 | 0.0 | 0.0 | 0.00 | 0.00 | 0.00 | 36 | 1018.6 | |
| 20260903051316 | 84 | 0.0 | 0.0 | 0.00 | 0.00 | 0.00 | 36 | 1018.5 | |
| 20260903050315 | 84 | 0.0 | 0.0 | 0.00 | 0.00 | 0.00 | 35 | 1018.7 | |
| 20260903045336 | 84 | 0.0 | 0.0 | 0.00 | 0.00 | 0.00 | 35 | 1018.4 | |
| 20260903044316 | 84 | 0.0 | 0.0 | 0.00 | 0.00 | 0.00 | 34 | 1018.3 | |
| 20260903043315 | 84 | 0.0 | 0.0 | 0.00 | 0.00 | 0.00 | 34 | 1018.3 | |
| 20260903042316 | 84 | 0.0 | 0.0 | 0.00 | 0.00 | 0.00 | 35 | 1018.3 | |
| 20260903041315 | 85 | 0.0 | 0.0 | 0.00 | 0.00 | 0.00 | 33 | 1018.2 | |
| 20260903040336 | 85 | 0.0 | 0.0 | 0.00 | 0.00 | 0.00 | 32 | 1018.1 | |
| 20260903035315 | 85 | 0.0 | 0.0 | 0.00 | 0.00 | 0.00 | 32 | 1017.7 | |
| 20260903034315 | 85 | 0.0 | 0.0 | 0.00 | 0.00 | 0.00 | 32 | 1017.6 | |
| 20260903033315 | 86 | 0.0 | 0.0 | 0.00 | 0.00 | 0.00 | 32 | 1017.8 | |
| 20260903032316 | 86 | 0.0 | 0.0 | 0.00 | 0.00 | 0.00 | 32 | 1017.5 | |
| 20260903031315 | 86 | 0.0 | 0.0 | 0.00 | 0.00 | 0.00 | 31 | 1017.4 | |
| 20260903030316 | 87 | 0.0 | 0.0 | 0.00 | 0.00 | 0.00 | 31 | 1017.2 | |
| 20260903025315 | 86 | 293 | 1.0 | 4.0 | 0.00 | 0.00 | 0.00 | 31 | 1017.0 |
| 20260903024315 | 87 | 0.0 | 0.0 | 0.00 | 0.00 | 0.00 | 31 | 1016.7 | |
| 20260903023316 | 87 | 0.0 | 0.0 | 0.00 | 0.00 | 0.00 | 30 | 1016.7 | |
| 20260903022316 | 87 | 0.0 | 0.0 | 0.00 | 0.00 | 0.00 | 30 | 1016.1 | |
| 20260903021316 | 88 | 0.0 | 0.0 | 0.00 | 0.00 | 0.00 | 29 | 1016.2 | |
| 20260903020315 | 88 | 0.0 | 0.0 | 0.00 | 0.00 | 0.00 | 29 | 1016.2 | |
| 20260903015315 | 89 | 0.0 | 0.0 | 0.00 | 0.00 | 0.00 | 29 | 1015.6 | |
| 20260903014315 | 89 | 0.0 | 0.0 | 0.00 | 0.00 | 0.00 | 28 | 1015.5 | |
| 20260903013315 | 90 | 248 | 1.0 | 3.0 | 0.00 | 0.00 | 0.00 | 27 | 1015.5 |
| 20260903012315 | 90 | 0.0 | 0.0 | 0.00 | 0.00 | 0.00 | 27 | 1015.4 | |
| 20260903011316 | 91 | 0.0 | 0.0 | 0.00 | 0.00 | 0.00 | 26 | 1015.6 | |
| 20260903010316 | 92 | 0.0 | 0.0 | 0.00 | 0.00 | 0.00 | 25 | 1015.5 | |
| 20260903005315 | 94 | 315 | 1.0 | 3.0 | 0.00 | 0.00 | 0.00 | 25 | 1015.8 |
| 20260903004316 | 94 | 0.0 | 0.0 | 0.00 | 0.00 | 0.00 | 25 | 1015.9 | |
| 20260903003315 | 94 | 0.0 | 0.0 | 0.00 | 0.00 | 0.00 | 24 | 1015.9 | |
| 20260903002315 | 94 | 0.0 | 4.0 | 0.00 | 0.00 | 0.00 | 24 | 1016.1 | |
| 20260903001315 | 94 | 0.0 | 0.0 | 0.00 | 0.00 | 0.00 | 24 | 1016.1 | |
| 20260903000317 | 94 | 315 | 3.0 | 7.0 | 0.00 | 0.00 | 0.00 | 24 | 1016.1 |
| 20260902235316 | 94 | 0.0 | 0.0 | 0.00 | 0.00 | 0.00 | 24 | 1016.1 | |
| 20260902234335 | 94 | 0.0 | 2.0 | 0.00 | 0.00 | 0.00 | 23 | 1016.2 | |
| 20260902233315 | 93 | 0.0 | 2.0 | 0.00 | 0.00 | 0.00 | 24 | 1016.0 | |
| 20260902232315 | 94 | 293 | 4.0 | 6.0 | 0.00 | 0.00 | 0.00 | 22 | 1016.5 |
| 20260902231335 | 95 | 23 | 1.0 | 3.0 | 0.00 | 0.00 | 0.00 | 22 | 1016.6 |
| 20260902230315 | 95 | 315 | 7.0 | 11.0 | 0.00 | 0.00 | 0.00 | 22 | 1016.8 |
| 20260902225316 | 94 | 315 | 2.0 | 5.0 | 0.00 | 0.00 | 0.00 | 22 | 1016.9 |
| 20260902224316 | 94 | 23 | 2.0 | 5.0 | 0.00 | 0.00 | 0.00 | 23 | 1017.0 |
| 20260902223315 | 95 | 293 | 7.0 | 12.0 | 0.00 | 0.00 | 0.00 | 22 | 1016.9 |
| 20260902222315 | 96 | 0.0 | 0.0 | 0.00 | 0.00 | 0.00 | 22 | 1017.1 | |
| 20260902221315 | 96 | 0.0 | 0.0 | 0.00 | 0.00 | 0.00 | 23 | 1017.1 | |
| 20260902220315 | 96 | 225 | 2.0 | 4.0 | 0.00 | 0.00 | 0.00 | 22 | 1017.3 |
| 20260902215315 | 96 | 90 | 1.0 | 5.0 | 0.00 | 0.00 | 0.00 | 23 | 1017.8 |
| 20260902214355 | 95 | 248 | 3.0 | 5.0 | 0.00 | 0.00 | 0.00 | 23 | 1017.5 |
| 20260902213315 | 96 | 135 | 6.0 | 9.0 | 0.00 | 0.00 | 0.00 | 23 | 1017.9 |
| 20260902212315 | 97 | 225 | 7.0 | 11.0 | 0.00 | 0.00 | 0.00 | 23 | 1018.3 |
| 20260902211315 | 95 | 0.0 | 0.0 | 0.00 | 0.00 | 0.00 | 24 | 1018.3 | |
| 20260902210315 | 94 | 0.0 | 0.0 | 0.00 | 0.00 | 0.00 | 25 | 1018.6 | |
| 20260902205335 | 95 | 293 | 4.0 | 10.0 | 0.00 | 0.00 | 0.00 | 25 | 1018.8 |
| 20260902204315 | 95 | 248 | 4.0 | 7.0 | 0.00 | 0.00 | 0.00 | 25 | 1018.9 |
| 20260902203315 | 95 | 225 | 3.0 | 4.0 | 0.00 | 0.00 | 0.00 | 25 | 1019.2 |
| 20260902202315 | 95 | 293 | 1.0 | 4.0 | 0.00 | 0.00 | 0.00 | 25 | 1019.6 |
| 20260902201335 | 95 | 248 | 2.0 | 4.0 | 0.00 | 0.00 | 0.00 | 26 | 1019.5 |
| 20260902200315 | 94 | 225 | 1.0 | 2.0 | 0.00 | 0.00 | 0.00 | 26 | 1019.8 |
| 20260902195315 | 93 | 248 | 3.0 | 5.0 | 0.00 | 0.00 | 0.00 | 28 | 1020.2 |
| 20260902194335 | 93 | 315 | 5.0 | 7.0 | 0.00 | 0.00 | 0.00 | 28 | 1020.3 |
| 20260902193335 | 93 | 0.0 | 0.0 | 0.00 | 0.00 | 0.00 | 28 | 1020.5 | |
| 20260902192315 | 92 | 225 | 2.0 | 4.0 | 0.00 | 0.00 | 0.00 | 29 | 1020.3 |
| 20260902191335 | 91 | 315 | 6.0 | 9.0 | 0.00 | 0.00 | 0.00 | 30 | 1020.4 |
| 20260902190315 | 92 | 315 | 4.0 | 7.0 | 0.00 | 0.00 | 0.00 | 28 | 1020.5 |
| 20260902185318 | 92 | 180 | 2.0 | 3.0 | 0.00 | 0.00 | 0.00 | 29 | 1021.0 |
| 20260902184315 | 90 | 293 | 3.0 | 5.0 | 0.00 | 0.00 | 0.00 | 31 | 1021.0 |
| 20260902183315 | 91 | 315 | 3.0 | 4.0 | 0.00 | 0.00 | 0.00 | 30 | 1021.3 |
| 20260902182315 | 90 | 293 | 3.0 | 5.0 | 0.00 | 0.00 | 0.00 | 31 | 1021.4 |
| 20260902181315 | 90 | 0.0 | 0.0 | 0.00 | 0.00 | 0.00 | 31 | 1021.5 | |
| 20260902180315 | 89 | 315 | 1.0 | 4.0 | 0.00 | 0.00 | 0.00 | 32 | 1021.7 |
| 20260902175335 | 89 | 0.0 | 0.0 | 0.00 | 0.00 | 0.00 | 33 | 1021.6 | |
| 20260902174315 | 89 | 0.0 | 0.0 | 0.00 | 0.00 | 0.00 | 33 | 1021.7 | |
| 20260902173315 | 89 | 0.0 | 0.0 | 0.00 | 0.00 | 0.00 | 33 | 1021.8 | |
| 20260902172315 | 87 | 0.0 | 0.0 | 0.00 | 0.00 | 0.00 | 34 | 1021.8 | |
| 20260902171315 | 88 | 0.0 | 0.0 | 0.00 | 0.00 | 0.00 | 34 | 1022.0 | |
| 20260902170315 | 87 | 158 | 4.0 | 5.0 | 0.00 | 0.00 | 0.00 | 36 | 1022.3 |
| 20260902165315 | 86 | 203 | 3.0 | 5.0 | 0.00 | 0.00 | 0.00 | 36 | 1022.0 |
| 20260902164315 | 85 | 0.0 | 1.0 | 0.00 | 0.00 | 0.00 | 39 | 1021.9 | |
| 20260902163315 | 84 | 0.0 | 1.0 | 0.00 | 0.00 | 0.00 | 39 | 1021.7 | |
| 20260902162315 | 85 | 0.0 | 0.0 | 0.00 | 0.00 | 0.00 | 38 | 1022.0 | |
| 20260902161315 | 84 | 0.0 | 0.0 | 0.00 | 0.00 | 0.00 | 40 | 1021.7 | |
| 20260902160315 | 84 | 0.0 | 0.0 | 0.00 | 0.00 | 0.00 | 41 | 1021.7 | |
| 20260902155335 | 83 | 0.0 | 0.0 | 0.00 | 0.00 | 0.00 | 43 | 1021.8 | |
| 20260902154315 | 83 | 0.0 | 4.0 | 0.00 | 0.00 | 0.00 | 43 | 1021.8 | |
| 20260902153315 | 82 | 0.0 | 0.0 | 0.00 | 0.00 | 0.00 | 44 | 1021.7 | |
| 20260902152335 | 82 | 0.0 | 0.0 | 0.00 | 0.00 | 0.00 | 45 | 1022.0 | |
| 20260902151315 | 80 | 0.0 | 0.0 | 0.00 | 0.00 | 0.00 | 47 | 1021.7 | |
| 20260902150315 | 81 | 0.0 | 3.0 | 0.00 | 0.00 | 0.00 | 48 | 1021.8 | |
| 20260902145315 | 80 | 0.0 | 0.0 | 0.00 | 0.00 | 0.00 | 48 | 1021.6 | |
| 20260902144315 | 80 | 0.0 | 1.0 | 0.00 | 0.00 | 0.00 | 48 | 1021.6 | |
| 20260902143315 | 80 | 0.0 | 0.0 | 0.00 | 0.00 | 0.00 | 48 | 1021.6 | |
| 20260902142355 | 79 | 0.0 | 0.0 | 0.00 | 0.00 | 0.00 | 50 | 1021.4 | |
| 20260902141335 | 77 | 0.0 | 0.0 | 0.00 | 0.00 | 0.00 | 51 | 1021.1 | |
| 20260902140315 | 76 | 0.0 | 0.0 | 0.00 | 0.00 | 0.00 | 55 | 1021.0 | |
| 20260902135315 | 75 | 0.0 | 0.0 | 0.00 | 0.00 | 0.00 | 57 | 1020.8 | |
| 20260902134315 | 73 | 0.0 | 0.0 | 0.00 | 0.00 | 0.00 | 60 | 1020.7 | |
| 20260902133315 | 71 | 0.0 | 0.0 | 0.00 | 0.00 | 0.00 | 62 | 1020.3 | |
| 20260902132315 | 71 | 0.0 | 0.0 | 0.00 | 0.00 | 0.00 | 61 | 1020.6 | |
| 20260902131315 | 72 | 0.0 | 0.0 | 0.00 | 0.00 | 0.00 | 60 | 1020.3 | |
| 20260902130315 | 71 | 0.0 | 0.0 | 0.00 | 0.00 | 0.00 | 60 | 1020.4 | |
| 20260902125337 | 71 | 0.0 | 0.0 | 0.00 | 0.00 | 0.00 | 58 | 1020.1 | |
| 20260902124317 | 71 | 0.0 | 0.0 | 0.00 | 0.00 | 0.00 | 57 | 1020.0 | |
| 20260902123317 | 71 | 0.0 | 0.0 | 0.00 | 0.00 | 0.00 | 54 | 1019.8 | |
| 20260902122317 | 72 | 0.0 | 0.0 | 0.00 | 0.00 | 0.00 | 53 | 1019.9 | |
| 20260902121317 | 73 | 0.0 | 0.0 | 0.00 | 0.00 | 0.00 | 50 | 1019.8 | |
| 20260902120317 | 73 | 0.0 | 0.0 | 0.00 | 0.00 | 0.00 | 49 | 1019.8 | |
| 20260902115317 | 73 | 0.0 | 0.0 | 0.00 | 0.00 | 0.00 | 48 | 1020.1 | |
| 20260902114317 | 74 | 0.0 | 0.0 | 0.00 | 0.00 | 0.00 | 49 | 1020.0 | |
| 20260902113317 | 73 | 0.0 | 0.0 | 0.00 | 0.00 | 0.00 | 52 | 1019.7 | |
| 20260902112317 | 73 | 0.0 | 0.0 | 0.00 | 0.00 | 0.00 | 51 | 1020.0 | |
| 20260902111317 | 74 | 0.0 | 0.0 | 0.00 | 0.00 | 0.00 | 49 | 1020.3 | |
| 20260902110317 | 74 | 0.0 | 0.0 | 0.00 | 0.00 | 0.00 | 48 | 1020.2 | |
| 20260902105317 | 74 | 0.0 | 0.0 | 0.00 | 0.00 | 0.00 | 50 | 1019.9 | |
| 20260902104317 | 74 | 0.0 | 0.0 | 0.00 | 0.00 | 0.00 | 50 | 1019.9 | |
| 20260902103317 | 74 | 0.0 | 0.0 | 0.00 | 0.00 | 0.00 | 50 | 1019.9 | |
| 20260902102317 | 74 | 0.0 | 0.0 | 0.00 | 0.00 | 0.00 | 50 | 1020.0 | |
| 20260902101317 | 73 | 0.0 | 0.0 | 0.00 | 0.00 | 0.00 | 52 | 1020.0 | |
| 20260902100317 | 74 | 0.0 | 0.0 | 0.00 | 0.00 | 0.00 | 51 | 1019.9 | |
| 20260902095337 | 74 | 0.0 | 0.0 | 0.00 | 0.00 | 0.00 | 51 | 1020.3 | |
| 20260902094317 | 74 | 0.0 | 0.0 | 0.00 | 0.00 | 0.00 | 51 | 1020.2 | |
| 20260902093317 | 74 | 0.0 | 0.0 | 0.00 | 0.00 | 0.00 | 50 | 1020.2 | |
| 20260902092337 | 75 | 0.0 | 0.0 | 0.00 | 0.00 | 0.00 | 49 | 1020.3 | |
| 20260902091317 | 75 | 0.0 | 0.0 | 0.00 | 0.00 | 0.00 | 49 | 1020.3 | |
| 20260902090317 | 76 | 0.0 | 0.0 | 0.00 | 0.00 | 0.00 | 49 | 1020.4 | |
| 20260902085337 | 77 | 0.0 | 0.0 | 0.00 | 0.00 | 0.00 | 47 | 1020.4 |